QPF
0.07 0.06 0.05 0.04 0.04 0.06 0.07 0.07 0.06 0.06 0.05 0.04 0.02 0.02 0.01 0.00 0.00 0.00 0.01 0.01 0.01 0.02 0.02 0.02 0.02 0.03 0.03 0.03 0.03 0.03 0.02 0.01 0.01 0.01 0.01 0.01 0.01 0.02 0.01 0.01 0.01 0.01 0.01
0.11 0.09 0.06 0.04 0.04 0.06 0.09 0.09 0.07 0.06 0.06 0.06 0.04 0.03 0.02 0.01 0.00 0.00 0.00 0.01 0.02 0.02 0.01 0.02 0.02 0.03 0.03 0.03 0.03 0.03 0.03 0.02 0.01 0.01 0.01 0.01 0.01 0.02 0.03 0.02 0.02 0.02 0.02
0.12 0.12 0.10 0.07 0.05 0.06 0.09 0.10 0.09 0.07 0.05 0.04 0.04 0.03 0.03 0.02 0.01 0.00 0.00 0.01 0.01 0.01 0.01 0.01 0.02 0.03 0.03 0.02 0.03 0.03 0.03 0.02 0.02 0.01 0.01 0.01 0.01 0.01 0.03 0.04 0.04 0.03 0.02
0.13 0.12 0.11 0.12 0.09 0.08 0.09 0.09 0.11 0.09 0.05 0.03 0.03 0.04 0.04 0.03 0.03 0.01 0.01 0.01 0.01 0.01 0.01 0.01 0.01 0.02 0.02 0.02 0.02 0.03 0.03 0.03 0.02 0.01 0.01 0.01 0.00 0.01 0.03 0.05 0.04 0.03 0.02
0.10 0.11 0.11 0.11 0.10 0.09 0.09 0.09 0.10 0.09 0.05 0.04 0.03 0.02 0.02 0.03 0.03 0.03 0.02 0.01 0.01 0.01 0.01 0.01 0.01 0.01 0.01 0.02 0.02 0.02 0.03 0.03 0.03 0.02 0.01 0.01 0.01 0.00 0.01 0.03 0.03 0.03 0.03
0.07 0.07 0.09 0.10 0.10 0.09 0.08 0.09 0.09 0.09 0.06 0.04 0.04 0.04 0.03 0.03 0.03 0.03 0.02 0.01 0.01 0.01 0.01 0.01 0.01 0.01 0.01 0.02 0.02 0.02 0.03 0.04 0.03 0.03 0.02 0.02 0.01 0.01 0.01 0.02 0.03 0.02 0.03
0.06 0.05 0.05 0.08 0.07 0.06 0.07 0.08 0.09 0.09 0.07 0.04 0.03 0.03 0.04 0.04 0.03 0.03 0.02 0.02 0.01 0.01 0.01 0.01 0.00 0.00 0.01 0.02 0.02 0.02 0.02 0.04 0.05 0.04 0.03 0.02 0.01 0.01 0.01 0.02 0.02 0.02 0.02
0.05 0.05 0.04 0.05 0.05 0.05 0.06 0.07 0.09 0.10 0.08 0.04 0.03 0.03 0.03 0.04 0.03 0.02 0.02 0.02 0.02 0.02 0.01 0.01 0.00 0.01 0.01 0.01 0.01 0.01 0.01 0.03 0.06 0.06 0.04 0.03 0.02 0.01 0.02 0.02 0.02 0.02 0.02
0.05 0.04 0.04 0.04 0.04 0.05 0.05 0.06 0.08 0.08 0.07 0.04 0.02 0.02 0.03 0.03 0.03 0.03 0.02 0.03 0.03 0.02 0.02 0.01 0.01 0.01 0.01 0.01 0.01 0.01 0.01 0.01 0.05 0.09 0.07 0.05 0.03 0.02 0.02 0.02 0.02 0.02 0.02
0.06 0.05 0.05 0.04 0.03 0.04 0.04 0.05 0.06 0.07 0.07 0.06 0.02 0.02 0.02 0.02 0.02 0.02 0.03 0.03 0.03 0.03 0.02 0.01 0.02 0.01 0.01 0.01 0.01 0.01 0.01 0.01 0.03 0.09 0.11 0.09 0.06 0.03 0.02 0.02 0.03 0.03 0.03
0.05 0.06 0.05 0.04 0.04 0.04 0.04 0.04 0.05 0.05 0.06 0.06 0.04 0.02 0.02 0.01 0.01 0.01 0.02 0.02 0.03 0.03 0.02 0.01 0.01 0.02 0.02 0.01 0.01 0.01 0.01 0.01 0.02 0.07 0.11 0.13 0.11 0.06 0.04 0.04 0.03 0.03 0.04
0.05 0.06 0.07 0.05 0.05 0.06 0.05 0.05 0.05 0.05 0.04 0.04 0.03 0.02 0.01 0.01 0.01 0.01 0.01 0.02 0.02 0.02 0.01 0.01 0.01 0.01 0.02 0.02 0.02 0.02 0.01 0.01 0.01 0.04 0.09 0.14 0.14 0.10 0.04 0.02 0.02 0.02 0.03
0.03 0.04 0.06 0.07 0.07 0.06 0.05 0.05 0.04 0.05 0.04 0.03 0.03 0.04 0.03 0.02 0.02 0.02 0.01 0.01 0.02 0.02 0.01 0.01 0.01 0.01 0.02 0.02 0.03 0.04 0.02 0.02 0.02 0.03 0.06 0.11 0.14 0.12 0.06 0.02 0.03 0.03 0.03
0.03 0.03 0.03 0.06 0.07 0.07 0.06 0.06 0.05 0.05 0.04 0.04 0.03 0.03 0.04 0.04 0.03 0.03 0.02 0.02 0.01 0.01 0.01 0.01 0.02 0.02 0.02 0.03 0.04 0.06 0.05 0.05 0.04 0.04 0.05 0.07 0.11 0.12 0.08 0.03 0.02 0.02 0.02
0.03 0.03 0.03 0.04 0.05 0.07 0.08 0.07 0.06 0.05 0.05 0.04 0.04 0.03 0.03 0.03 0.03 0.02 0.01 0.01 0.01 0.01 0.01 0.01 0.03 0.03 0.03 0.03 0.04 0.05 0.06 0.08 0.07 0.05 0.04 0.05 0.06 0.09 0.09 0.05 0.02 0.02 0.02
0.02 0.03 0.03 0.03 0.04 0.05 0.07 0.08 0.06 0.06 0.06 0.05 0.03 0.02 0.02 0.02 0.02 0.01 0.01 0.01 0.01 0.01 0.01 0.01 0.02 0.03 0.03 0.03 0.03 0.04 0.06 0.08 0.08 0.07 0.05 0.05 0.04 0.05 0.07 0.07 0.03 0.02 0.01
0.02 0.02 0.03 0.03 0.04 0.05 0.07 0.07 0.05 0.05 0.05 0.04 0.03 0.03 0.02 0.02 0.02 0.01 0.01 0.01 0.01 0.01 0.01 0.00 0.01 0.01 0.02 0.02 0.02 0.02 0.03 0.04 0.05 0.07 0.07 0.06 0.06 0.04 0.04 0.06 0.06 0.03 0.02
0.02 0.02 0.02 0.03 0.03 0.04 0.06 0.06 0.05 0.05 0.05 0.03 0.02 0.02 0.03 0.02 0.02 0.01 0.01 0.01 0.01 0.01 0.01 0.01 0.00 0.00 0.01 0.01 0.01 0.01 0.01 0.02 0.02 0.03 0.04 0.04 0.05 0.04 0.03 0.04 0.07 0.07 0.04
0.02 0.02 0.02 0.02 0.02 0.02 0.03 0.04 0.04 0.04 0.03 0.02 0.02 0.02 0.02 0.02 0.01 0.01 0.01 0.01 0.01 0.01 0.01 0.01 0.01 0.01 0.01 0.01 0.01 0.01 0.01 0.01 0.01 0.02 0.02 0.03 0.04 0.04 0.03 0.02 0.04 0.07 0.06
0.02 0.02 0.02 0.02 0.02 0.02 0.02 0.03 0.03 0.04 0.03 0.02 0.02 0.02 0.02 0.02 0.01 0.01 0.01 0.01 0.01 0.01 0.01 0.01 0.01 0.01 0.01 0.01 0.02 0.01 0.01 0.02 0.02 0.01 0.01 0.02 0.04 0.06 0.05 0.03 0.02 0.03 0.05
0.03 0.02 0.02 0.02 0.02 0.02 0.02 0.02 0.02 0.03 0.02 0.02 0.02 0.02 0.02 0.02 0.02 0.02 0.01 0.01 0.01 0.02 0.02 0.01 0.01 0.01 0.01 0.01 0.02 0.01 0.02 0.02 0.02 0.02 0.01 0.01 0.02 0.04 0.07 0.06 0.03 0.02 0.03
0.03 0.03 0.03 0.02 0.02 0.02 0.02 0.02 0.02 0.01 0.01 0.02 0.02 0.01 0.01 0.02 0.02 0.02 0.02 0.02 0.03 0.02 0.02 0.02 0.02 0.02 0.01 0.01 0.01 0.02 0.02 0.02 0.02 0.02 0.02 0.01 0.01 0.02 0.04 0.07 0.06 0.03 0.03
0.03 0.02 0.03 0.02 0.02 0.02 0.02 0.02 0.02 0.01 0.01 0.01 0.01 0.01 0.01 0.01 0.01 0.01 0.02 0.02 0.02 0.02 0.02 0.02 0.02 0.01 0.01 0.01 0.02 0.02 0.02 0.02 0.02 0.02 0.03 0.03 0.02 0.02 0.03 0.05 0.07 0.06 0.04
0.03 0.03 0.02 0.02 0.02 0.02 0.02 0.02 0.02 0.01 0.01 0.01 0.01 0.01 0.01 0.01 0.01 0.01 0.01 0.01 0.01 0.01 0.01 0.01 0.01 0.01 0.01 0.01 0.01 0.02 0.02 0.02 0.02 0.02 0.02 0.03 0.02 0.02 0.03 0.04 0.06 0.06 0.06
0.03 0.03 0.03 0.03 0.02 0.02 0.02 0.01 0.01 0.01 0.01 0.00 0.00 0.00 0.00 0.00 0.01 0.01 0.01 0.01 0.01 0.01 0.01 0.01 0.01 0.01 0.01 0.01 0.01 0.02 0.02 0.03 0.03 0.01 0.01 0.01 0.02 0.01 0.02 0.04 0.05 0.05 0.05
0.04 0.04 0.04 0.03 0.02 0.02 0.02 0.01 0.01 0.01 0.01 0.00 0.00 0.00 0.00 0.00 0.01 0.01 0.01 0.01 0.01 0.01 0.01 0.01 0.01 0.01 0.01 0.00 0.01 0.01 0.02 0.03 0.03 0.02 0.01 0.01 0.01 0.02 0.02 0.02 0.04 0.05 0.05
MSLP
1013.29 1013.18 1013.02 1012.81 1012.54 1012.26 1012.01 1011.82 1011.73 1011.77 1011.94 1012.23 1012.62 1013.09 1013.62 1014.18 1014.76 1015.34 1015.91 1016.46 1016.99 1017.50 1017.98 1018.43 1018.87 1019.30 1019.72 1020.14 1020.56 1020.98 1021.39 1021.79 1022.15 1022.49 1022.79 1023.07 1023.32 1023.57 1023.80 1024.04 1024.27 1024.49 1024.69
1012.81 1012.71 1012.56 1012.35 1012.07 1011.77 1011.48 1011.25 1011.11 1011.11 1011.25 1011.55 1011.98 1012.52 1013.15 1013.82 1014.52 1015.21 1015.87 1016.49 1017.06 1017.58 1018.06 1018.51 1018.94 1019.38 1019.82 1020.28 1020.75 1021.22 1021.68 1022.12 1022.51 1022.86 1023.16 1023.41 1023.65 1023.86 1024.08 1024.30 1024.53 1024.75 1024.96
1012.25 1012.16 1012.02 1011.82 1011.56 1011.26 1010.97 1010.72 1010.56 1010.54 1010.67 1010.98 1011.45 1012.06 1012.77 1013.56 1014.36 1015.16 1015.90 1016.58 1017.18 1017.70 1018.17 1018.60 1019.01 1019.44 1019.89 1020.36 1020.87 1021.39 1021.89 1022.37 1022.79 1023.15 1023.46 1023.71 1023.92 1024.12 1024.32 1024.52 1024.74 1024.97 1025.18
1011.62 1011.51 1011.39 1011.22 1011.00 1010.74 1010.48 1010.25 1010.10 1010.08 1010.23 1010.55 1011.06 1011.72 1012.51 1013.38 1014.28 1015.16 1015.98 1016.71 1017.34 1017.86 1018.31 1018.71 1019.10 1019.49 1019.93 1020.41 1020.93 1021.47 1022.01 1022.51 1022.97 1023.35 1023.66 1023.91 1024.12 1024.31 1024.49 1024.69 1024.91 1025.13 1025.35
1010.91 1010.78 1010.67 1010.54 1010.38 1010.20 1010.00 1009.83 1009.73 1009.74 1009.91 1010.26 1010.79 1011.50 1012.35 1013.29 1014.27 1015.22 1016.10 1016.88 1017.53 1018.06 1018.49 1018.86 1019.21 1019.57 1019.98 1020.43 1020.95 1021.49 1022.04 1022.57 1023.04 1023.44 1023.77 1024.03 1024.24 1024.43 1024.61 1024.80 1025.02 1025.25 1025.48
1010.12 1009.96 1009.86 1009.78 1009.70 1009.62 1009.52 1009.44 1009.42 1009.49 1009.70 1010.07 1010.64 1011.38 1012.26 1013.25 1014.29 1015.30 1016.24 1017.06 1017.74 1018.28 1018.71 1019.06 1019.37 1019.69 1020.06 1020.48 1020.96 1021.49 1022.03 1022.55 1023.03 1023.44 1023.78 1024.05 1024.27 1024.47 1024.67 1024.87 1025.10 1025.33 1025.58
1009.25 1009.05 1008.96 1008.94 1008.96 1008.99 1009.02 1009.06 1009.14 1009.29 1009.55 1009.97 1010.56 1011.32 1012.24 1013.26 1014.33 1015.39 1016.37 1017.24 1017.95 1018.52 1018.95 1019.29 1019.58 1019.87 1020.19 1020.56 1021.00 1021.48 1021.99 1022.49 1022.96 1023.37 1023.71 1024.00 1024.25 1024.47 1024.68 1024.91 1025.15 1025.40 1025.66
1008.34 1008.11 1008.03 1008.07 1008.18 1008.33 1008.50 1008.67 1008.87 1009.12 1009.46 1009.93 1010.55 1011.33 1012.25 1013.29 1014.38 1015.47 1016.49 1017.39 1018.14 1018.74 1019.20 1019.54 1019.82 1020.08 1020.36 1020.69 1021.07 1021.51 1021.97 1022.43 1022.87 1023.27 1023.62 1023.92 1024.19 1024.43 1024.68 1024.93 1025.20 1025.47 1025.75
1007.47 1007.20 1007.13 1007.22 1007.42 1007.69 1007.99 1008.30 1008.63 1008.98 1009.41 1009.93 1010.58 1011.37 1012.30 1013.33 1014.43 1015.52 1016.56 1017.49 1018.28 1018.91 1019.39 1019.76 1020.05 1020.30 1020.56 1020.85 1021.18 1021.56 1021.96 1022.38 1022.78 1023.16 1023.50 1023.82 1024.11 1024.39 1024.67 1024.95 1025.25 1025.55 1025.85
1006.76 1006.45 1006.38 1006.49 1006.76 1007.13 1007.54 1007.98 1008.42 1008.88 1009.39 1009.97 1010.65 1011.44 1012.36 1013.38 1014.45 1015.54 1016.57 1017.51 1018.31 1018.98 1019.50 1019.90 1020.21 1020.47 1020.73 1020.99 1021.29 1021.61 1021.96 1022.33 1022.70 1023.05 1023.39 1023.71 1024.02 1024.33 1024.65 1024.97 1025.30 1025.62 1025.94
1006.29 1005.95 1005.86 1005.99 1006.29 1006.72 1007.22 1007.75 1008.29 1008.84 1009.41 1010.04 1010.74 1011.54 1012.44 1013.42 1014.45 1015.49 1016.50 1017.42 1018.23 1018.91 1019.47 1019.90 1020.25 1020.54 1020.81 1021.07 1021.35 1021.64 1021.95 1022.27 1022.60 1022.93 1023.26 1023.58 1023.92 1024.26 1024.61 1024.96 1025.32 1025.67 1026.00
1006.15 1005.77 1005.65 1005.76 1006.07 1006.51 1007.05 1007.63 1008.23 1008.84 1009.47 1010.13 1010.85 1011.63 1012.50 1013.42 1014.39 1015.38 1016.33 1017.22 1018.01 1018.70 1019.28 1019.75 1020.15 1020.48 1020.78 1021.05 1021.33 1021.61 1021.89 1022.18 1022.48 1022.79 1023.10 1023.43 1023.78 1024.15 1024.53 1024.92 1025.31 1025.68 1026.02
1006.35 1005.94 1005.78 1005.84 1006.11 1006.53 1007.06 1007.65 1008.27 1008.91 1009.55 1010.23 1010.94 1011.70 1012.52 1013.39 1014.28 1015.19 1016.07 1016.91 1017.67 1018.35 1018.94 1019.45 1019.89 1020.27 1020.61 1020.92 1021.21 1021.49 1021.77 1022.04 1022.32 1022.61 1022.92 1023.25 1023.61 1024.00 1024.41 1024.82 1025.23 1025.62 1025.98
1006.86 1006.41 1006.20 1006.20 1006.39 1006.75 1007.23 1007.78 1008.38 1009.00 1009.64 1010.31 1011.00 1011.73 1012.49 1013.29 1014.10 1014.93 1015.74 1016.51 1017.23 1017.90 1018.50 1019.04 1019.53 1019.96 1020.35 1020.70 1021.02 1021.31 1021.59 1021.85 1022.12 1022.39 1022.70 1023.03 1023.40 1023.81 1024.24 1024.68 1025.11 1025.52 1025.89
1007.55 1007.09 1006.82 1006.75 1006.86 1007.12 1007.51 1007.99 1008.53 1009.11 1009.72 1010.35 1011.01 1011.69 1012.40 1013.13 1013.88 1014.62 1015.36 1016.08 1016.76 1017.41 1018.02 1018.59 1019.11 1019.59 1020.03 1020.42 1020.78 1021.09 1021.37 1021.64 1021.90 1022.17 1022.46 1022.80 1023.17 1023.59 1024.04 1024.49 1024.94 1025.37 1025.75
1008.32 1007.85 1007.54 1007.40 1007.42 1007.59 1007.88 1008.26 1008.72 1009.22 1009.78 1010.36 1010.97 1011.61 1012.27 1012.94 1013.62 1014.31 1014.99 1015.66 1016.31 1016.95 1017.56 1018.15 1018.71 1019.23 1019.71 1020.14 1020.53 1020.86 1021.16 1021.42 1021.68 1021.95 1022.24 1022.58 1022.95 1023.37 1023.83 1024.30 1024.76 1025.19 1025.58
1009.03 1008.58 1008.25 1008.06 1008.01 1008.08 1008.27 1008.55 1008.92 1009.34 1009.82 1010.35 1010.91 1011.50 1012.11 1012.74 1013.38 1014.03 1014.67 1015.31 1015.95 1016.57 1017.19 1017.79 1018.38 1018.93 1019.44 1019.90 1020.30 1020.66 1020.96 1021.24 1021.50 1021.76 1022.05 1022.39 1022.76 1023.18 1023.63 1024.10 1024.56 1025.00 1025.40
1009.60 1009.19 1008.88 1008.67 1008.57 1008.57 1008.67 1008.86 1009.14 1009.48 1009.88 1010.34 1010.85 1011.39 1011.97 1012.57 1013.18 1013.80 1014.42 1015.05 1015.68 1016.30 1016.92 1017.53 1018.12 1018.69 1019.22 1019.69 1020.11 1020.48 1020.79 1021.08 1021.34 1021.61 1021.91 1022.23 1022.60 1023.01 1023.45 1023.91 1024.36 1024.79 1025.18
1010.01 1009.67 1009.40 1009.20 1009.08 1009.04 1009.08 1009.19 1009.38 1009.65 1009.98 1010.37 1010.82 1011.32 1011.86 1012.44 1013.03 1013.64 1014.25 1014.87 1015.49 1016.11 1016.73 1017.34 1017.93 1018.49 1019.01 1019.49 1019.92 1020.29 1020.62 1020.92 1021.20 1021.48 1021.78 1022.10 1022.47 1022.86 1023.28 1023.71 1024.13 1024.54 1024.91
1010.30 1010.04 1009.82 1009.66 1009.54 1009.48 1009.48 1009.54 1009.67 1009.86 1010.12 1010.45 1010.85 1011.30 1011.81 1012.36 1012.94 1013.53 1014.13 1014.74 1015.35 1015.95 1016.55 1017.14 1017.71 1018.26 1018.77 1019.24 1019.67 1020.05 1020.40 1020.71 1021.02 1021.32 1021.63 1021.96 1022.31 1022.69 1023.07 1023.47 1023.85 1024.22 1024.57
1010.52 1010.34 1010.19 1010.07 1009.97 1009.91 1009.89 1009.91 1009.98 1010.11 1010.31 1010.58 1010.92 1011.33 1011.80 1012.31 1012.86 1013.44 1014.02 1014.61 1015.19 1015.77 1016.34 1016.89 1017.42 1017.94 1018.43 1018.88 1019.31 1019.71 1020.07 1020.42 1020.75 1021.08 1021.42 1021.75 1022.10 1022.46 1022.81 1023.16 1023.49 1023.81 1024.12
1010.73 1010.62 1010.52 1010.44 1010.37 1010.32 1010.28 1010.27 1010.29 1010.37 1010.52 1010.73 1011.02 1011.38 1011.80 1012.28 1012.79 1013.33 1013.88 1014.42 1014.96 1015.50 1016.01 1016.52 1017.01 1017.48 1017.94 1018.38 1018.81 1019.22 1019.62 1020.00 1020.38 1020.74 1021.11 1021.46 1021.81 1022.14 1022.46 1022.76 1023.04 1023.31 1023.57
1010.95 1010.89 1010.84 1010.79 1010.73 1010.68 1010.62 1010.59 1010.58 1010.62 1010.71 1010.88 1011.12 1011.43 1011.80 1012.23 1012.69 1013.18 1013.67 1014.17 1014.65 1015.12 1015.58 1016.02 1016.46 1016.89 1017.32 1017.75 1018.18 1018.61 1019.04 1019.47 1019.89 1020.30 1020.70 1021.08 1021.42 1021.74 1022.03 1022.29 1022.52 1022.74 1022.95
1011.18 1011.16 1011.12 1011.08 1011.03 1010.96 1010.90 1010.84 1010.80 1010.81 1010.87 1010.99 1011.19 1011.45 1011.78 1012.15 1012.56 1012.98 1013.41 1013.84 1014.26 1014.66 1015.05 1015.44 1015.83 1016.22 1016.62 1017.04 1017.48 1017.93 1018.39 1018.86 1019.33 1019.79 1020.22 1020.62 1020.97 1021.28 1021.54 1021.77 1021.97 1022.15 1022.33
1011.38 1011.37 1011.34 1011.30 1011.23 1011.15 1011.07 1011.00 1010.94 1010.93 1010.97 1011.07 1011.23 1011.46 1011.74 1012.06 1012.41 1012.77 1013.14 1013.50 1013.84 1014.18 1014.51 1014.84 1015.19 1015.55 1015.93 1016.35 1016.79 1017.27 1017.76 1018.27 1018.77 1019.26 1019.71 1020.13 1020.49 1020.80 1021.05 1021.26 1021.43 1021.59 1021.76
1011.50 1011.49 1011.46 1011.41 1011.33 1011.24 1011.15 1011.07 1011.02 1011.00 1011.04 1011.13 1011.27 1011.47 1011.72 1011.99 1012.29 1012.59 1012.89 1013.18 1013.47 1013.75 1014.03 1014.33 1014.64 1014.98 1015.35 1015.77 1016.22 1016.71 1017.22 1017.74 1018.27 1018.77 1019.24 1019.66 1020.03 1020.33 1020.58 1020.79 1020.96 1021.12 1021.29
Thickness
5627 5628 5628 5630 5631 5632 5634 5636 5638 5640 5642 5644 5645 5646 5647 5648 5650 5649 5649 5650 5650 5651 5651 5651 5651 5650 5650 5650 5650 5650 5650 5649 5648 5647 5646 5646 5645 5644 5643 5642 5642 5641 5640
5617 5618 5619 5621 5623 5625 5626 5628 5631 5632 5635 5636 5637 5638 5640 5641 5642 5642 5642 5642 5643 5643 5644 5644 5644 5644 5643 5643 5643 5643 5643 5642 5641 5640 5640 5639 5638 5637 5636 5635 5634 5634 5633
5606 5608 5609 5611 5614 5617 5619 5620 5622 5624 5625 5627 5629 5630 5631 5633 5634 5634 5634 5634 5634 5635 5636 5636 5636 5636 5636 5636 5636 5636 5635 5635 5634 5633 5633 5632 5631 5630 5629 5628 5627 5627 5626
5597 5598 5600 5601 5605 5608 5610 5611 5613 5614 5615 5617 5619 5621 5622 5623 5624 5625 5626 5626 5626 5626 5626 5627 5628 5628 5629 5629 5629 5629 5628 5627 5627 5626 5625 5624 5623 5622 5621 5621 5620 5619 5619
5588 5589 5591 5593 5596 5599 5600 5602 5603 5605 5606 5607 5609 5611 5613 5614 5615 5615 5616 5616 5617 5617 5617 5618 5619 5619 5620 5621 5621 5621 5620 5620 5619 5618 5618 5617 5616 5615 5614 5613 5612 5611 5611
5581 5582 5583 5585 5587 5589 5591 5593 5594 5595 5596 5598 5600 5601 5602 5604 5605 5606 5606 5606 5607 5607 5608 5608 5609 5610 5611 5612 5612 5612 5612 5612 5611 5611 5610 5610 5609 5608 5607 5606 5605 5604 5603
5573 5574 5575 5577 5579 5580 5581 5583 5585 5585 5585 5588 5588 5588 5590 5592 5594 5596 5596 5597 5597 5598 5598 5599 5599 5600 5601 5602 5603 5603 5603 5603 5603 5603 5602 5602 5601 5601 5600 5599 5597 5596 5595
5565 5566 5568 5569 5571 5572 5573 5575 5577 5575 5575 5578 5579 5578 5577 5578 5582 5585 5586 5587 5587 5588 5589 5589 5590 5590 5591 5592 5593 5594 5594 5594 5594 5594 5594 5594 5593 5593 5592 5591 5590 5588 5588
5558 5559 5561 5562 5563 5565 5565 5566 5567 5568 5567 5568 5571 5571 5570 5570 5569 5572 5575 5577 5578 5578 5579 5580 5581 5581 5582 5582 5583 5584 5584 5584 5585 5585 5586 5585 5585 5585 5584 5583 5581 5580 5580
5553 5553 5554 5555 5556 5557 5558 5558 5559 5560 5560 5560 5561 5562 5564 5564 5562 5561 5563 5565 5567 5568 5569 5570 5571 5572 5572 5573 5573 5574 5574 5574 5575 5575 5576 5576 5576 5576 5575 5574 5573 5572 5571
5547 5547 5548 5548 5549 5550 5550 5551 5551 5551 5552 5552 5552 5553 5554 5555 5556 5554 5552 5553 5555 5558 5560 5561 5561 5562 5562 5563 5564 5565 5565 5565 5565 5565 5566 5566 5566 5566 5566 5565 5564 5562 5562
5541 5541 5541 5542 5542 5542 5542 5543 5543 5543 5543 5543 5544 5545 5545 5546 5546 5546 5545 5544 5544 5547 5550 5551 5552 5553 5553 5554 5554 5555 5555 5555 5555 5555 5555 5555 5555 5555 5555 5554 5553 5552 5551
5534 5534 5535 5534 5534 5534 5534 5534 5534 5534 5534 5534 5535 5536 5537 5538 5539 5539 5538 5536 5536 5537 5540 5541 5542 5543 5543 5543 5544 5544 5544 5545 5545 5545 5544 5544 5544 5543 5543 5542 5542 5541 5540
5528 5528 5527 5526 5526 5525 5525 5525 5525 5525 5525 5526 5527 5527 5528 5529 5530 5530 5529 5527 5524 5525 5528 5530 5532 5532 5533 5533 5533 5533 5533 5534 5534 5534 5534 5533 5532 5532 5531 5530 5530 5529 5528
5522 5521 5520 5518 5518 5517 5517 5516 5516 5516 5516 5516 5516 5517 5518 5519 5520 5520 5520 5519 5517 5515 5518 5520 5521 5522 5521 5522 5522 5522 5522 5522 5522 5522 5522 5522 5521 5520 5519 5518 5517 5517 5516
5515 5514 5512 5511 5510 5509 5509 5508 5507 5506 5506 5507 5507 5507 5508 5508 5509 5509 5509 5509 5509 5509 5509 5511 5511 5511 5511 5511 5511 5511 5511 5511 5511 5511 5511 5510 5509 5509 5507 5506 5505 5504 5503
5507 5506 5505 5503 5501 5500 5500 5499 5498 5498 5498 5497 5497 5498 5498 5498 5498 5498 5498 5498 5498 5498 5498 5500 5499 5500 5499 5499 5499 5498 5498 5499 5499 5499 5498 5497 5496 5495 5494 5493 5492 5491 5490
5500 5498 5497 5495 5493 5492 5492 5491 5490 5489 5489 5488 5488 5488 5488 5488 5487 5487 5487 5487 5487 5487 5486 5487 5487 5486 5487 5487 5487 5486 5487 5487 5487 5486 5485 5484 5483 5481 5480 5479 5478 5477 5476
5493 5490 5488 5487 5485 5484 5484 5483 5482 5481 5481 5480 5480 5480 5479 5478 5477 5476 5476 5475 5475 5476 5475 5475 5475 5474 5473 5473 5473 5473 5473 5474 5474 5473 5471 5471 5469 5468 5467 5466 5465 5464 5463
5485 5483 5481 5479 5478 5477 5476 5475 5474 5473 5473 5472 5471 5471 5470 5470 5469 5467 5466 5465 5464 5463 5463 5462 5462 5461 5460 5460 5459 5459 5459 5459 5459 5459 5458 5457 5456 5455 5454 5453 5452 5451 5450
5478 5476 5474 5472 5471 5470 5469 5467 5466 5466 5464 5464 5463 5463 5462 5461 5460 5459 5457 5456 5454 5453 5451 5450 5449 5449 5448 5447 5446 5446 5445 5445 5445 5445 5444 5444 5444 5443 5441 5440 5439 5439 5438
5471 5469 5467 5465 5464 5463 5462 5460 5459 5458 5456 5456 5455 5454 5453 5452 5451 5449 5448 5447 5445 5443 5441 5439 5438 5437 5438 5436 5434 5433 5430 5429 5431 5433 5430 5431 5431 5430 5429 5428 5428 5427 5427
5464 5461 5459 5457 5456 5455 5454 5453 5452 5450 5449 5447 5446 5444 5444 5443 5441 5439 5437 5436 5434 5432 5431 5430 5428 5428 5427 5426 5423 5421 5418 5417 5418 5419 5416 5419 5418 5418 5417 5416 5415 5415 5415
5457 5454 5452 5450 5448 5447 5447 5445 5444 5442 5440 5439 5438 5436 5434 5433 5431 5429 5428 5426 5423 5422 5421 5420 5420 5419 5417 5414 5412 5410 5408 5406 5406 5405 5404 5404 5406 5405 5405 5403 5402 5402 5402
5449 5446 5444 5442 5440 5439 5438 5438 5436 5434 5433 5431 5429 5427 5425 5423 5422 5420 5418 5416 5414 5413 5411 5410 5409 5408 5406 5404 5400 5396 5394 5392 5393 5393 5391 5391 5392 5391 5392 5392 5391 5390 5390
5441 5439 5436 5434 5432 5431 5430 5430 5428 5426 5424 5422 5420 5418 5416 5414 5412 5410 5408 5406 5404 5403 5401 5400 5398 5397 5395 5392 5389 5386 5383 5380 5379 5380 5380 5378 5377 5376 5379 5382 5380 5379 5378